Location: Corcelles
(46.1547°N, 4.7234°E)
Time: 20:39:44
(UTC+00:00)

Cosmos 1356 - Pass Details

Date: 14 July 2020
Orbit: 443 x 447 km, 81.1° (Epoch: 14 August)

Event Time Altitude Azimuth Distance (km) Brightness Sun altitude
Exits shadow 02:04:53 19° 159° (SSE) 1,146 5.1 -15.4°
Maximum altitude 02:07:01 42° 96° (E) 653 4.4 -15.2°
Drops below altitude 10° 02:10:18 10° 24° (NNE) 1,583 7.5 -14.9°
Sets 02:12:26 0° 18° (NNE) 2,459 8.7 -14.6°
